Tracking 27097 objects as of 29-Mar-2023
HD Live streaming from Space Station
objects crossing your sky now

STARLINK-4342

Track STARLINK-4342 now!
10-day predictions
STARLINK-4342 is classified as:


NORAD ID: 53070
Int'l Code: 2022-077AD
Perigee: 568.0 km
Apogee: 572.3 km
Inclination: 97.7 °
Period: 95.9 minutes
Semi major axis: 6941 km
RCS: Unknown
Launch date: July 11, 2022
Source: United States (US)
Launch site: AIR FORCE WESTERN TEST RANGE (AFWTR)
Your satellite tracking list
Your tracking list is empty




NASA's NSSDC Master Catalog

Two Line Element Set (TLE):
1 53070U 22077AD  23087.77193729  .00005571  00000-0  43779-3 0  9999
2 53070  97.6544 270.0108 0003102  79.7076 280.4498 15.01274583 39342
Source of the keplerian elements: AFSPC